Regional Weather Roundup
Issued by NWS

Home | Current Version | Previous Version | Text Only | Print | Product List | Glossary Off
Versions: 1 2 3 4 5 6 7 8 9 10 11 12 13 14 15 16 17 18 19 20 21 22 23 24 25 26 27 28 29 30 31 32 33 34 35 36 37 38 39 40 41 42 43 44 45 46 47 48 49 50

000
ASUS43 KFSD 050910
RWRSD

WEATHER ROUNDUP FOR SOUTH DAKOTA
NATIONAL WEATHER SERVICE SIOUX FALLS SD
400 AM CDT SUN JUL 05 2015

NOTE: "FAIR" INDICATES FEW OR NO CLOUDS BELOW 12,000 FEET WITH NO
SIGNIFICANT WEATHER AND/OR OBSTRUCTIONS TO VISIBILITY.


SDZ001>005-009-010-012>017-051000-
NORTHWEST AND NORTH CENTRAL SOUTH DAKOTA

CITY           SKY/WX    TMP DP  RH WIND       PRES   REMARKS
BUFFALO          N/A     67  55  65 E5        29.69F
FAITH            N/A     68  63  84 S12       29.74F
MOBRIDGE       PTCLDY    72  71  97 E13       29.69S
$$

SDZ012>016-024>037-041>051-057-063-072>074-051000-
SOUTHWEST AND SOUTH CENTRAL SOUTH DAKOTA

CITY           SKY/WX    TMP DP  RH WIND       PRES   REMARKS
RAPID CTY ARPT CLEAR     68  62  81 SW5       29.79F
PIERRE         CLEAR     69  63  81 S9        29.70F
CUSTER         CLEAR     57  52  83 W3        29.96F
ELLSWORTH AFB  CLEAR     70  63  77 SW5       29.77F
PHILIP         CLEAR     68  62  81 W5        29.74R
PINE RIDGE     CLEAR     70  61  73 VRB3      29.82F
SPEARFISH      FAIR      72  54  53 SW5       29.81F
WINNER         FAIR      76  62  62 S7        29.74F
$$

SDZ004>011-016>023-039-040-051000-
NORTHEAST SOUTH DAKOTA

CITY           SKY/WX    TMP DP  RH WIND       PRES   REMARKS
ABERDEEN       CLOUDY    70  67  90 MISG      29.76R
WATERTOWN      CLOUDY    71  64  78 S9G16     29.85R
BROOKINGS      CLOUDY    68  61  77 S12G17    29.87R
SISSETON         N/A     73  65  75 S13G20    29.78R
$$

SDZ017-020-022-023-036>040-048>070-051000-
SOUTHEAST SOUTH DAKOTA

CITY           SKY/WX    TMP DP  RH WIND       PRES   REMARKS
SIOUX FALLS    CLOUDY    69  62  78 S14G24    29.84F
HURON          MOCLDY    71  65  81 SE16      29.77S
CHAMBERLAIN    CLEAR     72  66  82 S8        29.73F
MITCHELL       MOCLDY    72  65  78 S16G26    29.76F THUNDER
YANKTON        PTCLDY    70  63  78 S14       29.81F
$$

ABBREVIATIONS USED IN REMARKS
   TC - TEMPERATURE IN CELSIUS
  WCI - WIND CHILL INDEX
   HX - HEAT INDEX
  VSB - VISIBILITY




USA.gov is the U.S. government's official web portal to all federal, state and local government web resources and services.